FW0414 Weather Reports


Display with metric or nautical units.
time (UTC)temp
F
wind
direction
speed
MPH
gust
MPH
rain 1hr
in
rain 24hr
in
rain mn
in
humidity
%
barometer
mb
20260504205335 74 324 2.0 6.0 0.00 0.00 0.00 49 1013.7
20260504204835 74 104 2.0 6.0 0.00 0.00 0.00 44 1013.7
20260504204335 74 72 2.0 9.0 0.00 0.00 0.00 43 1013.7
20260504203837 74 92 3.0 9.0 0.00 0.00 0.00 42 1013.8
20260504203559 74 88 3.0 8.0 0.00 0.00 0.00 41 1013.9
20260504202835 74 169 2.0 7.0 0.00 0.00 0.00 39 1013.9
20260504202333 74 148 2.0 7.0 0.00 0.00 0.00 40 1014.0
20260504201834 74 234 2.0 7.0 0.00 0.00 0.00 39 1014.0
20260504201333 74 102 3.0 9.0 0.00 0.00 0.00 37 1014.2
20260504200831 74 267 2.0 9.0 0.00 0.00 0.00 39 1014.2
20260504200331 74 19 2.0 5.0 0.00 0.00 0.00 38 1014.3
20260504195831 74 101 2.0 5.0 0.00 0.00 0.00 44 1014.4
20260504195329 74 56 2.0 5.0 0.00 0.00 0.00 41 1014.6
20260504194829 74 136 2.0 5.0 0.00 0.00 0.00 42 1014.6
20260504194329 74 75 2.0 9.0 0.00 0.00 0.00 42 1014.7
20260504193828 74 26 1.0 9.0 0.00 0.00 0.00 42 1014.7
20260504193325 74 91 2.0 6.0 0.00 0.00 0.00 45 1014.7
20260504192825 74 61 2.0 7.0 0.00 0.00 0.00 44 1014.8
20260504192328 74 115 3.0 7.0 0.00 0.00 0.00 42 1014.9
20260504191823 75 344 3.0 7.0 0.00 0.00 0.00 44 1014.9
20260504191319 75 118 2.0 6.0 0.00 0.00 0.00 43 1014.8
20260504190815 74 146 1.0 4.0 0.00 0.00 0.00 46 1014.9
20260504190316 74 61 2.0 4.0 0.00 0.00 0.00 45 1014.9
20260504190036 74 98 2.0 6.0 0.00 0.00 0.00 43 1014.8
20260504185311 74 225 2.0 6.0 0.00 0.00 0.00 40 1015.0
20260504184810 74 106 2.0 6.0 0.00 0.00 0.00 43 1015.0
20260504184537 74 51 2.0 6.0 0.00 0.00 0.00 44 1015.1
20260504183809 74 205 2.0 5.0 0.00 0.00 0.00 43 1015.2
20260504183309 74 92 2.0 5.0 0.00 0.00 0.00 46 1015.3
20260504182811 73 0 1.0 5.0 0.00 0.00 0.00 45 1015.3
20260504182309 73 263 2.0 7.0 0.00 0.00 0.00 47 1015.4
20260504181808 73 143 3.0 11.0 0.00 0.00 0.00 45 1015.4
20260504181310 74 227 2.0 11.0 0.00 0.00 0.00 41 1015.5
20260504181033 73 39 2.0 5.0 0.00 0.00 0.00 42 1015.5
20260504180526 73 303 1.0 3.0 0.00 0.00 0.00 46 1015.5
20260504175806 73 188 2.0 7.0 0.00 0.00 0.00 46 1015.6
20260504175305 73 175 2.0 7.0 0.00 0.00 0.00 43 1015.7
20260504174805 72 208 3.0 7.0 0.00 0.00 0.00 41 1015.8
20260504174746 72 128 2.0 7.0 0.00 0.00 0.00 43 1015.8
20260504173805 72 270 2.0 7.0 0.00 0.00 0.00 50 1015.8
20260504173305 72 232 2.0 6.0 0.00 0.00 0.00 50 1015.9
20260504172805 71 76 2.0 7.0 0.00 0.00 0.00 47 1015.9
20260504172307 71 211 1.0 7.0 0.00 0.00 0.00 44 1015.9
20260504171800 71 130 2.0 5.0 0.00 0.00 0.00 49 1015.9
20260504171302 71 92 2.0 8.0 0.00 0.00 0.00 49 1016.0
20260504170802 71 229 2.0 8.0 0.00 0.00 0.00 43 1016.0
20260504170525 71 84 2.0 8.0 0.00 0.00 0.00 46 1016.2
20260504160303 68 223 2.0 8.0 0.00 0.00 0.00 48 1016.8
20260504150747 64 206 3.0 10.0 0.00 0.00 0.00 52 1017.4
20260504150510 64 212 3.0 8.0 0.00 0.00 0.00 52 1017.4
20260504141235 61 126 2.0 4.0 0.00 0.00 0.00 65 1017.6
20260504140727 60 194 2.0 4.0 0.00 0.00 0.00 60 1017.6
20260504140223 60 181 1.0 4.0 0.00 0.00 0.00 65 1017.6
20260504130707 48 109 0.0 0.0 0.00 0.00 0.00 89 1017.6
20260504130423 47 109 0.0 0.0 0.00 0.00 0.00 91 1017.7
20260504120139 40 109 0.0 0.0 0.00 0.00 0.00 92 1017.8
20260504110534 39 109 0.0 0.0 0.00 0.00 0.00 89 1017.3
20260504100132 40 109 0.0 0.0 0.00 0.00 0.00 89 1017.0
20260504081715 41 109 0.0 0.0 0.00 0.00 0.00 88 1017.0
20260504081210 41 109 0.0 0.0 0.00 0.00 0.00 88 1017.0
20260504080857 41 109 0.0 1.0 0.00 0.00 0.00 88 1017.0
20260504080757 41 109 0.0 1.0 0.00 0.00 0.00 88 1017.0
20260504050501 41 109 0.0 2.0 0.00 0.00 0.00 86 1018.0
20260504045959 41 109 0.0 2.0 0.00 0.00 0.00 86 1018.0
20260504045501 41 109 0.0 1.0 0.00 0.00 0.00 86 1017.8
20260504045000 41 109 0.0 1.0 0.00 0.00 0.00 86 1017.8
20260504044501 41 109 0.0 1.0 0.00 0.00 0.00 85 1017.8
20260504044001 42 109 0.0 0.0 0.00 0.00 0.00 85 1018.0
20260504043501 42 109 0.0 0.0 0.00 0.00 0.00 85 1017.8
20260504042959 42 109 0.0 1.0 0.00 0.00 0.00 85 1017.6
20260504042500 42 109 0.0 1.0 0.00 0.00 0.00 85 1017.7
20260504042000 42 109 0.0 1.0 0.00 0.00 0.00 85 1017.7
20260504041500 42 109 0.0 0.0 0.00 0.00 0.00 85 1017.6
20260504041003 43 109 0.0 1.0 0.00 0.00 0.00 84 1017.7
20260504040504 43 109 0.0 1.0 0.00 0.00 0.00 84 1017.7
20260504040001 43 109 0.0 1.0 0.00 0.00 0.00 83 1017.6
20260504035454 43 109 0.0 1.0 0.00 0.00 0.00 83 1017.6
20260504035208 44 109 0.0 1.0 0.00 0.00 0.00 82 1017.5
20260504034444 44 109 0.0 0.0 0.00 0.00 0.00 82 1017.6
20260504033937 44 109 0.0 1.0 0.00 0.00 0.00 82 1017.5
20260504033431 44 109 0.0 1.0 0.00 0.00 0.00 82 1017.4
20260504032924 44 109 0.0 1.0 0.00 0.00 0.00 81 1017.6
20260504032419 45 109 0.0 1.0 0.00 0.00 0.00 81 1017.6
20260504031913 45 109 0.0 1.0 0.00 0.00 0.00 81 1017.6
20260504031407 45 109 0.0 1.0 0.00 0.00 0.00 81 1017.6
20260504030901 45 109 0.0 1.0 0.00 0.00 0.00 80 1017.7
20260504030619 46 109 0.0 1.0 0.00 0.00 0.00 81 1017.7
20260504025847 46 109 0.0 1.0 0.00 0.00 0.00 80 1017.7
20260504025343 46 109 0.0 1.0 0.00 0.00 0.00 80 1017.8
20260504024835 46 109 0.0 1.0 0.00 0.00 0.00 79 1017.8
20260504024331 46 109 1.0 1.0 0.00 0.00 0.00 79 1017.7
20260504024048 47 109 0.0 1.0 0.00 0.00 0.00 78 1017.7
20260504023319 47 109 0.0 1.0 0.00 0.00 0.00 78 1017.7
20260504022813 47 109 0.0 1.0 0.00 0.00 0.00 79 1017.6
20260504022307 47 109 0.0 1.0 0.00 0.00 0.00 79 1017.5
20260504021800 48 109 0.0 1.0 0.00 0.00 0.00 78 1017.5
20260504021254 48 109 0.0 0.0 0.00 0.00 0.00 77 1017.4
20260504020748 48 109 0.0 0.0 0.00 0.00 0.00 75 1017.3
20260504020243 49 109 0.0 0.0 0.00 0.00 0.00 75 1017.4
20260504015738 49 109 0.0 0.0 0.00 0.00 0.00 75 1017.4
20260504015459 49 109 0.0 0.0 0.00 0.00 0.00 72 1017.3
20260504014725 50 109 0.0 0.0 0.00 0.00 0.00 71 1017.3
20260504014219 50 109 0.0 2.0 0.00 0.00 0.00 69 1017.3
20260504013713 51 109 0.0 2.0 0.00 0.00 0.00 70 1017.3
20260504013207 51 109 0.0 1.0 0.00 0.00 0.00 68 1017.2
20260504012701 52 109 0.0 1.0 0.00 0.00 0.00 68 1017.2
20260504012412 52 109 1.0 1.0 0.00 0.00 0.00 66 1017.1
20260504011648 53 109 0.0 2.0 0.00 0.00 0.00 65 1017.0
20260504011348 54 109 0.0 1.0 0.00 0.00 0.00 64 1017.0
20260504011230 53 109 0.0 2.0 0.00 0.00 0.00 65 1017.0
20260504010132 54 109 0.0 1.0 0.00 0.00 0.00 61 1017.0
20260504005624 55 109 0.0 1.0 0.00 0.00 0.00 61 1016.9
20260504005119 56 109 0.0 1.0 0.00 0.00 0.00 57 1016.9
20260504005051 56 109 0.0 0.0 0.00 0.00 0.00 56 1016.8
20260504004107 56 109 0.0 0.0 0.00 0.00 0.00 54 1016.7
20260504003601 56 109 0.0 1.0 0.00 0.00 0.00 52 1016.7
20260504003312 57 109 1.0 3.0 0.00 0.00 0.00 52 1016.7
20260504002549 57 109 1.0 3.0 0.00 0.00 0.00 53 1016.7
20260504002043 58 194 1.0 3.0 0.00 0.00 0.00 51 1016.7
20260504001536 58 199 1.0 4.0 0.00 0.00 0.00 52 1016.7
20260504001521 58 109 1.0 5.0 0.00 0.00 0.00 52 1016.7
20260504000525 59 182 1.0 4.0 0.00 0.00 0.00 50 1016.5
20260504000018 59 234 2.0 6.0 0.00 0.00 0.00 47 1016.5
20260503235513 59 225 2.0 6.0 0.00 0.00 0.00 49 1016.5
20260503235007 60 199 2.0 6.0 0.00 0.00 0.00 47 1016.4
20260503234501 60 207 1.0 4.0 0.00 0.00 0.00 45 1016.4
20260503234216 60 152 2.0 6.0 0.00 0.00 0.00 47 1016.3
20260503233447 60 5 2.0 6.0 0.00 0.00 0.00 46 1016.3
20260503232943 61 198 2.0 6.0 0.00 0.00 0.00 48 1016.2
20260503232437 61 165 2.0 6.0 0.00 0.00 0.00 46 1016.2
20260503231931 61 75 3.0 8.0 0.00 0.00 0.00 47 1016.3
20260503231425 61 102 3.0 9.0 0.00 0.00 0.00 44 1016.2
20260503230917 62 212 3.0 9.0 0.00 0.00 0.00 45 1016.3
20260503230634 62 226 2.0 7.0 0.00 0.00 0.00 45 1016.3
20260503225907 62 168 2.0 6.0 0.00 0.00 0.00 46 1016.2
20260503225401 62 109 2.0 7.0 0.00 0.00 0.00 44 1016.2
20260503224855 62 119 2.0 7.0 0.00 0.00 0.00 45 1016.2
20260503224349 62 127 2.0 6.0 0.00 0.00 0.00 44 1016.2
20260503224059 63 163 3.0 10.0 0.00 0.00 0.00 44 1016.2
20260503223337 63 232 4.0 10.0 0.00 0.00 0.00 41 1016.3
20260503222830 63 223 4.0 11.0 0.00 0.00 0.00 41 1016.2
20260503222323 63 217 4.0 11.0 0.00 0.00 0.00 41 1016.3
20260503221819 63 219 3.0 9.0 0.00 0.00 0.00 43 1016.3
20260503220807 63 265 3.0 9.0 0.00 0.00 0.00 43 1016.2
20260503220300 63 149 3.0 9.0 0.00 0.00 0.00 42 1016.2
20260503215755 64 119 4.0 10.0 0.00 0.00 0.00 42 1016.2
20260503215250 64 46 4.0 12.0 0.00 0.00 0.00 45 1016.2
20260503214743 64 61 4.0 12.0 0.00 0.00 0.00 42 1016.2
20260503214235 65 218 3.0 8.0 0.00 0.00 0.00 42 1016.2
20260503213729 65 235 3.0 11.0 0.00 0.00 0.00 42 1016.2
20260503213713 65 159 3.0 11.0 0.00 0.00 0.00 41 1016.2
20260503212719 65 126 3.0 10.0 0.00 0.00 0.00 43 1016.3
20260503212217 66 107 3.0 10.0 0.00 0.00 0.00 41 1016.4
20260503211718 66 171 3.0 8.0 0.00 0.00 0.00 39 1016.4
20260503211701 65 83 3.0 9.0 0.00 0.00 0.00 40 1016.4
20260503210712 65 242 4.0 9.0 0.00 0.00 0.00 41 1016.4
20260503210213 65 240 3.0 7.0 0.00 0.00 0.00 38 1016.7
20260503205713 65 115 3.0 10.0 0.00 0.00 0.00 37 1016.5